Year,Month,Day,Hour,Minute,Value (Times are PST for temperature in C)
2019,09,26,00,00,12.50
2019,09,26,00,01,12.50
2019,09,26,00,02,12.50
2019,09,26,00,03,12.50
2019,09,26,00,04,12.50
2019,09,26,00,06,12.50
2019,09,26,00,07,12.60
2019,09,26,00,09,12.60
2019,09,26,00,10,12.60
2019,09,26,00,11,12.60
2019,09,26,00,12,12.60
2019,09,26,00,13,12.60
2019,09,26,00,29,12.50
2019,09,26,00,30,12.50
2019,09,26,00,32,12.60
2019,09,26,00,33,12.60
2019,09,26,00,34,12.60
2019,09,26,00,36,12.60
2019,09,26,00,37,12.60
2019,09,26,00,38,12.60
2019,09,26,00,39,12.50
2019,09,26,00,40,12.50
2019,09,26,00,41,12.50
2019,09,26,00,42,12.50
2019,09,26,00,43,12.50
2019,09,26,00,44,12.50
2019,09,26,00,45,12.50
2019,09,26,00,46,12.50
2019,09,26,00,47,12.50
2019,09,26,00,48,12.50
2019,09,26,00,49,12.50
2019,09,26,00,50,12.50
2019,09,26,00,51,12.50
2019,09,26,00,52,12.40
2019,09,26,00,53,12.40
2019,09,26,00,54,12.40
2019,09,26,00,55,12.40
2019,09,26,00,56,12.40
2019,09,26,00,57,12.40
2019,09,26,00,58,12.40
2019,09,26,00,59,12.40
2019,09,26,01,02,12.40
2019,09,26,01,03,12.40
2019,09,26,01,04,12.50
2019,09,26,01,05,12.50
2019,09,26,01,06,12.50
2019,09,26,01,07,12.50
2019,09,26,01,08,12.50
2019,09,26,01,09,12.50
2019,09,26,01,10,12.50
2019,09,26,01,11,12.50
2019,09,26,01,12,12.50
2019,09,26,01,13,12.50
2019,09,26,01,14,12.50
2019,09,26,01,15,12.50
2019,09,26,01,16,12.50
2019,09,26,01,17,12.50
2019,09,26,01,18,12.50
2019,09,26,01,19,12.50
2019,09,26,01,20,12.40
2019,09,26,01,21,12.40
2019,09,26,01,22,12.40
2019,09,26,01,23,12.40
2019,09,26,01,24,12.40
2019,09,26,01,25,12.40
2019,09,26,01,26,12.40
2019,09,26,01,27,12.40
2019,09,26,01,29,12.40
2019,09,26,01,30,12.40
2019,09,26,01,32,12.30
2019,09,26,01,33,12.30
2019,09,26,01,34,12.30
2019,09,26,01,36,12.30
2019,09,26,01,38,12.40
2019,09,26,01,39,12.40
2019,09,26,01,41,12.50
2019,09,26,01,42,12.60
2019,09,26,01,43,12.60
2019,09,26,01,44,12.60
2019,09,26,01,46,12.60
2019,09,26,01,47,12.60
2019,09,26,01,48,12.60
2019,09,26,01,49,12.70
2019,09,26,01,51,12.70
2019,09,26,01,52,12.70
2019,09,26,01,53,12.70
2019,09,26,01,54,12.70
2019,09,26,01,56,12.70
2019,09,26,01,57,12.70
2019,09,26,01,58,12.70
2019,09,26,01,59,12.70
2019,09,26,02,01,12.70
2019,09,26,02,02,12.70
2019,09,26,02,03,12.60
2019,09,26,02,04,12.60
2019,09,26,02,06,12.60
2019,09,26,02,07,12.60
2019,09,26,02,08,12.60
2019,09,26,02,09,12.60
2019,09,26,02,11,12.60
2019,09,26,02,12,12.60
2019,09,26,02,13,12.60
2019,09,26,02,14,12.60
2019,09,26,02,16,12.60
2019,09,26,02,17,12.60
2019,09,26,02,18,12.60
2019,09,26,02,19,12.60
2019,09,26,02,21,12.60
2019,09,26,02,22,12.60
2019,09,26,02,23,12.60
2019,09,26,02,24,12.50
2019,09,26,02,26,12.50
2019,09,26,02,27,12.50
2019,09,26,02,28,12.50
2019,09,26,02,29,12.50
2019,09,26,02,31,12.40
2019,09,26,02,32,12.40
2019,09,26,02,33,12.40
2019,09,26,02,34,12.40
2019,09,26,02,36,12.40
2019,09,26,02,37,12.40
2019,09,26,02,38,12.40
2019,09,26,02,39,12.40
2019,09,26,02,41,12.40
2019,09,26,02,42,12.40
2019,09,26,02,43,12.40
2019,09,26,02,44,12.40
2019,09,26,02,46,12.40
2019,09,26,02,47,12.40
2019,09,26,02,48,12.40
2019,09,26,02,49,12.40
2019,09,26,02,51,12.40
2019,09,26,02,52,12.30
2019,09,26,02,53,12.30
2019,09,26,02,54,12.30
2019,09,26,02,56,12.30
2019,09,26,02,57,12.30
2019,09,26,02,58,12.30
2019,09,26,02,59,12.30
2019,09,26,03,01,12.30
2019,09,26,03,02,12.30
2019,09,26,03,03,12.30
2019,09,26,03,04,12.30
2019,09,26,03,06,12.30
2019,09,26,03,07,12.30
2019,09,26,03,08,12.30
2019,09,26,03,09,12.30
2019,09,26,03,11,12.30
2019,09,26,03,12,12.30
2019,09,26,03,13,12.30
2019,09,26,03,14,12.30
2019,09,26,03,16,12.30
2019,09,26,03,17,12.30
2019,09,26,03,18,12.30
2019,09,26,03,19,12.30
2019,09,26,03,21,12.30
2019,09,26,03,22,12.30
2019,09,26,03,23,12.30
2019,09,26,03,24,12.20
2019,09,26,03,26,12.20
2019,09,26,03,27,12.20
2019,09,26,03,28,12.20
2019,09,26,03,29,12.20
2019,09,26,03,31,12.30
2019,09,26,03,32,12.30
2019,09,26,03,33,12.30
2019,09,26,03,34,12.30
2019,09,26,03,36,12.30
2019,09,26,03,37,12.30
2019,09,26,03,38,12.30
2019,09,26,03,39,12.30
2019,09,26,03,41,12.30
2019,09,26,03,42,12.30
2019,09,26,03,43,12.30
2019,09,26,03,44,12.30
2019,09,26,03,46,12.20
2019,09,26,03,47,12.20
2019,09,26,03,48,12.20
2019,09,26,03,49,12.20
2019,09,26,03,51,12.10
2019,09,26,03,52,12.10
2019,09,26,03,53,12.10
2019,09,26,03,54,12.10
2019,09,26,03,56,12.10
2019,09,26,03,57,12.10
2019,09,26,03,58,12.00
2019,09,26,03,59,12.00
2019,09,26,04,01,12.00
2019,09,26,04,02,12.00
2019,09,26,04,03,12.00
2019,09,26,04,04,12.00
2019,09,26,04,06,12.10
2019,09,26,04,07,12.10
2019,09,26,04,08,12.20
2019,09,26,04,09,12.20
2019,09,26,04,11,12.10
2019,09,26,04,12,12.10
2019,09,26,04,13,12.10
2019,09,26,04,14,12.10
2019,09,26,04,16,12.00
2019,09,26,04,17,12.00
2019,09,26,04,18,12.00
2019,09,26,04,19,12.00
2019,09,26,04,21,12.00
2019,09,26,04,22,12.00
2019,09,26,04,23,12.00
2019,09,26,04,24,12.00
2019,09,26,04,25,12.00
2019,09,26,04,26,12.00
2019,09,26,04,27,12.00
2019,09,26,04,28,12.00
2019,09,26,04,29,12.00
2019,09,26,04,30,12.00
2019,09,26,04,31,12.00
2019,09,26,04,32,12.00
2019,09,26,04,33,12.00
2019,09,26,04,34,12.10
2019,09,26,04,36,12.20
2019,09,26,04,37,12.30
2019,09,26,04,38,12.30
2019,09,26,04,39,12.40
2019,09,26,04,40,12.40
2019,09,26,04,41,12.50
2019,09,26,04,42,12.50
2019,09,26,04,43,12.50
2019,09,26,04,44,12.50
2019,09,26,04,45,12.50
2019,09,26,04,46,12.50
2019,09,26,04,47,12.50
2019,09,26,04,48,12.50
2019,09,26,04,49,12.50
2019,09,26,04,51,12.50
2019,09,26,04,52,12.50
2019,09,26,04,53,12.60
2019,09,26,04,54,12.60
2019,09,26,04,55,12.60
2019,09,26,04,56,12.70
2019,09,26,04,57,12.80
2019,09,26,04,58,12.80
2019,09,26,04,59,12.90
2019,09,26,05,00,13.00
2019,09,26,05,01,13.20
2019,09,26,05,02,13.30
2019,09,26,05,03,13.40
2019,09,26,05,04,13.50
2019,09,26,05,06,13.70
2019,09,26,05,07,13.70
2019,09,26,05,08,13.80
2019,09,26,05,09,13.90
2019,09,26,05,10,14.00
2019,09,26,05,11,14.10
2019,09,26,05,12,14.10
2019,09,26,05,13,14.20
2019,09,26,05,14,14.20
2019,09,26,05,15,14.20
2019,09,26,05,16,14.20
2019,09,26,05,17,14.20
2019,09,26,05,18,14.20
2019,09,26,05,19,14.20
2019,09,26,05,20,14.20
2019,09,26,05,21,14.20
2019,09,26,05,22,14.20
2019,09,26,05,23,14.20
2019,09,26,05,24,14.20
2019,09,26,05,25,14.20
2019,09,26,05,26,14.30
2019,09,26,05,27,14.30
2019,09,26,05,28,14.30
2019,09,26,05,29,14.40
2019,09,26,05,30,14.40
2019,09,26,05,31,14.50
2019,09,26,05,32,14.50
2019,09,26,05,33,14.60
2019,09,26,05,34,14.60
2019,09,26,05,35,14.70
2019,09,26,05,36,14.70
2019,09,26,05,37,14.70
2019,09,26,05,38,14.80
2019,09,26,05,39,14.80
2019,09,26,05,40,14.80
2019,09,26,05,41,14.80
2019,09,26,05,42,14.80
2019,09,26,05,43,14.80
2019,09,26,05,44,14.80
2019,09,26,05,45,14.80
2019,09,26,05,46,14.80
2019,09,26,05,47,14.80
2019,09,26,05,48,14.80
2019,09,26,05,49,14.80
2019,09,26,05,50,14.80
2019,09,26,05,51,14.80
2019,09,26,05,52,14.80
2019,09,26,05,53,14.80
2019,09,26,05,54,14.80
2019,09,26,05,55,14.80
2019,09,26,05,56,14.80
2019,09,26,05,57,14.80
2019,09,26,05,58,14.80
2019,09,26,05,59,14.80
2019,09,26,06,00,14.80
2019,09,26,06,01,14.80
2019,09,26,06,02,14.80
2019,09,26,06,03,14.80
2019,09,26,06,04,14.80
2019,09,26,06,05,14.80
2019,09,26,06,06,14.80
2019,09,26,06,07,14.80
2019,09,26,06,08,14.80
2019,09,26,06,09,14.80
2019,09,26,06,10,14.80
2019,09,26,06,11,14.80
2019,09,26,06,12,14.80
2019,09,26,06,13,14.80
2019,09,26,06,14,14.80
2019,09,26,06,15,14.80
2019,09,26,06,16,14.80
2019,09,26,06,17,14.80
2019,09,26,06,18,14.80
2019,09,26,06,19,14.80
2019,09,26,06,20,14.80
2019,09,26,06,22,14.80
2019,09,26,06,23,14.80
2019,09,26,06,24,14.80
2019,09,26,06,25,14.80
2019,09,26,06,26,14.80
2019,09,26,06,27,14.80
2019,09,26,06,29,14.80
2019,09,26,06,30,14.80
2019,09,26,06,32,14.70
2019,09,26,06,33,14.70
2019,09,26,06,34,14.70
2019,09,26,06,36,14.70
2019,09,26,06,37,14.60
2019,09,26,06,38,14.60
2019,09,26,06,39,14.60
2019,09,26,06,40,14.60
2019,09,26,06,41,14.60
2019,09,26,06,42,14.60
2019,09,26,06,43,14.60
2019,09,26,06,44,14.60
2019,09,26,06,46,14.60
2019,09,26,06,47,14.60
2019,09,26,06,48,14.60
2019,09,26,06,49,14.60
2019,09,26,06,51,14.60
2019,09,26,06,52,14.60
2019,09,26,06,53,14.60
2019,09,26,06,54,14.60
2019,09,26,06,56,14.60
2019,09,26,06,57,14.60
2019,09,26,06,58,14.70
2019,09,26,06,59,14.70
2019,09,26,07,01,14.80
2019,09,26,07,02,14.80
2019,09,26,07,03,14.80
2019,09,26,07,04,14.80
2019,09,26,07,05,14.80
2019,09,26,07,07,14.80
2019,09,26,07,08,14.80
2019,09,26,07,09,14.80
2019,09,26,07,11,14.80
2019,09,26,07,12,14.80
2019,09,26,07,13,14.80
2019,09,26,07,14,14.80
2019,09,26,07,16,14.70
2019,09,26,07,17,14.70
2019,09,26,07,18,14.70
2019,09,26,07,19,14.70
2019,09,26,07,21,14.70
2019,09,26,07,22,14.70
2019,09,26,07,23,14.70
2019,09,26,07,24,14.70
2019,09,26,07,26,14.70
2019,09,26,07,27,14.70
2019,09,26,07,28,14.70
2019,09,26,07,29,14.70
2019,09,26,07,31,14.70
2019,09,26,07,32,14.70
2019,09,26,07,33,14.70
2019,09,26,07,34,14.70
2019,09,26,07,36,14.60
2019,09,26,07,37,14.60
2019,09,26,07,38,14.60
2019,09,26,07,39,14.60
2019,09,26,07,41,14.60
2019,09,26,07,42,14.60
2019,09,26,07,43,14.60
2019,09,26,07,44,14.60
2019,09,26,07,46,14.60
2019,09,26,07,47,14.70
2019,09,26,07,48,14.70
2019,09,26,07,49,14.70
2019,09,26,07,51,14.70
2019,09,26,07,52,14.70
2019,09,26,07,53,14.70
2019,09,26,07,54,14.70
2019,09,26,07,56,14.70
2019,09,26,07,57,14.70
2019,09,26,07,58,14.70
2019,09,26,07,59,14.70
2019,09,26,08,01,14.70
2019,09,26,08,02,14.70
2019,09,26,08,03,14.70
2019,09,26,08,04,14.70
2019,09,26,08,06,14.60
2019,09,26,08,07,14.50
2019,09,26,08,08,14.50
2019,09,26,08,09,14.40
2019,09,26,08,11,14.20
2019,09,26,08,12,14.20
2019,09,26,08,13,14.20
2019,09,26,08,14,14.10
2019,09,26,08,16,13.90
2019,09,26,08,17,13.80
2019,09,26,08,18,13.70
2019,09,26,08,19,13.70
2019,09,26,08,21,13.70
2019,09,26,08,22,13.70
2019,09,26,08,23,13.70
2019,09,26,08,24,13.60
2019,09,26,08,26,13.60
2019,09,26,08,27,13.60
2019,09,26,08,28,13.60
2019,09,26,08,29,13.60
2019,09,26,08,31,13.60
2019,09,26,08,32,13.60
2019,09,26,08,33,13.60
2019,09,26,08,34,13.70
2019,09,26,08,36,13.70
2019,09,26,08,37,13.70
2019,09,26,08,38,13.70
2019,09,26,08,39,13.70
2019,09,26,08,41,13.70
2019,09,26,08,42,13.70
2019,09,26,08,43,13.70
2019,09,26,08,44,13.70
2019,09,26,08,46,13.70
2019,09,26,08,47,13.70
2019,09,26,08,48,13.70
2019,09,26,08,49,13.70
2019,09,26,08,51,13.70
2019,09,26,08,52,13.70
2019,09,26,08,53,13.70
2019,09,26,08,54,13.70
2019,09,26,08,56,13.70
2019,09,26,08,57,13.70
2019,09,26,08,58,13.70
2019,09,26,08,59,13.70
2019,09,26,09,01,13.70
2019,09,26,09,02,13.70
2019,09,26,09,03,13.80
2019,09,26,09,04,13.80
2019,09,26,09,06,13.80
2019,09,26,09,07,13.80
2019,09,26,09,08,13.80
2019,09,26,09,09,13.80
2019,09,26,09,11,13.80
2019,09,26,09,12,13.80
2019,09,26,09,13,13.80
2019,09,26,09,14,13.90
2019,09,26,09,16,13.90
2019,09,26,09,17,14.00
2019,09,26,09,18,14.00
2019,09,26,09,19,14.00
2019,09,26,09,21,14.10
2019,09,26,09,22,14.10
2019,09,26,09,23,14.20
2019,09,26,09,24,14.20
2019,09,26,09,26,14.20
2019,09,26,09,27,14.20
2019,09,26,09,28,14.20
2019,09,26,09,29,14.20
2019,09,26,09,31,14.20
2019,09,26,09,32,14.20
2019,09,26,09,33,14.20
2019,09,26,09,34,14.20
2019,09,26,09,36,14.20
2019,09,26,09,37,14.20
2019,09,26,09,38,14.20
2019,09,26,09,39,14.20
2019,09,26,09,40,14.20
2019,09,26,09,41,14.20
2019,09,26,09,42,14.20
2019,09,26,09,43,14.20
2019,09,26,09,44,14.20
2019,09,26,09,45,14.20
2019,09,26,09,46,14.20
2019,09,26,09,47,14.20
2019,09,26,09,48,14.20
2019,09,26,09,49,14.20
2019,09,26,09,51,14.20
2019,09,26,09,52,14.20
2019,09,26,09,53,14.20
2019,09,26,09,54,14.20
2019,09,26,09,55,14.20
2019,09,26,09,56,14.20
2019,09,26,09,57,14.20
2019,09,26,09,58,14.20
2019,09,26,09,59,14.20
2019,09,26,10,00,14.20
2019,09,26,10,01,14.20
2019,09,26,10,02,14.20
2019,09,26,10,03,14.20
2019,09,26,10,04,14.20
2019,09,26,10,06,14.20
2019,09,26,10,07,14.20
2019,09,26,10,08,14.20
2019,09,26,10,09,14.20
2019,09,26,10,10,14.20
2019,09,26,10,11,14.10
2019,09,26,10,12,14.10
2019,09,26,10,13,14.00
2019,09,26,10,14,14.00
2019,09,26,10,15,14.00
2019,09,26,10,16,14.00
2019,09,26,10,17,14.00
2019,09,26,10,18,14.00
2019,09,26,10,19,14.00
2019,09,26,10,20,14.10
2019,09,26,10,21,14.10
2019,09,26,10,22,14.10
2019,09,26,10,23,14.10
2019,09,26,10,24,14.10
2019,09,26,10,25,14.20
2019,09,26,10,26,14.20
2019,09,26,10,27,14.20
2019,09,26,10,28,14.20
2019,09,26,10,29,14.20
2019,09,26,10,31,14.20
2019,09,26,10,32,14.20
2019,09,26,10,33,14.20
2019,09,26,10,34,14.20
2019,09,26,10,36,14.20
2019,09,26,10,37,14.20
2019,09,26,10,38,14.30
2019,09,26,10,39,14.30
2019,09,26,10,40,14.30
2019,09,26,10,41,14.40
2019,09,26,10,42,14.40
2019,09,26,10,43,14.40
2019,09,26,10,44,14.40
2019,09,26,10,45,14.40
2019,09,26,10,46,14.40
2019,09,26,10,47,14.50
2019,09,26,10,48,14.50
2019,09,26,10,49,14.50
2019,09,26,10,50,14.60
2019,09,26,10,51,14.60
2019,09,26,10,52,14.70
2019,09,26,10,53,14.70
2019,09,26,10,54,14.80
2019,09,26,10,55,14.80
2019,09,26,10,56,14.80
2019,09,26,10,57,14.90
2019,09,26,10,58,14.90
2019,09,26,10,59,14.90
2019,09,26,11,00,14.80
2019,09,26,11,01,14.80
2019,09,26,11,02,14.80
2019,09,26,11,03,14.80
2019,09,26,11,04,14.80
2019,09,26,11,06,14.80
2019,09,26,11,07,14.80
2019,09,26,11,08,14.80
2019,09,26,11,09,14.70
2019,09,26,11,10,14.60
2019,09,26,11,11,14.60
2019,09,26,11,12,14.60
2019,09,26,11,13,14.60
2019,09,26,11,14,14.50
2019,09,26,11,15,14.50
2019,09,26,11,16,14.50
2019,09,26,11,17,14.60
2019,09,26,11,18,14.60
2019,09,26,11,19,14.60
2019,09,26,11,20,14.60
2019,09,26,11,21,14.60
2019,09,26,11,22,14.60
2019,09,26,11,23,14.60
2019,09,26,11,24,14.60
2019,09,26,11,25,14.60
2019,09,26,11,26,14.60
2019,09,26,11,27,14.60
2019,09,26,11,28,14.60
2019,09,26,11,29,14.60
2019,09,26,11,30,14.60
2019,09,26,11,31,14.60
2019,09,26,11,32,14.60
2019,09,26,11,33,14.60
2019,09,26,11,34,14.60
2019,09,26,11,35,14.60
2019,09,26,11,36,14.50
2019,09,26,11,37,14.50
2019,09,26,11,38,14.40
2019,09,26,11,39,14.40
2019,09,26,11,40,14.40
2019,09,26,11,41,14.40
2019,09,26,11,42,14.40
2019,09,26,11,43,14.40
2019,09,26,11,44,14.30
2019,09,26,11,45,14.30
2019,09,26,11,46,14.30
2019,09,26,11,47,14.30
2019,09,26,11,48,14.30
2019,09,26,11,49,14.30
2019,09,26,11,50,14.30
2019,09,26,11,51,14.30
2019,09,26,11,52,14.30
2019,09,26,11,53,14.30
2019,09,26,11,54,14.30
2019,09,26,11,55,14.30
2019,09,26,11,56,14.30
2019,09,26,11,58,14.30
2019,09,26,11,59,14.30
2019,09,26,12,00,14.30
2019,09,26,12,01,14.30
2019,09,26,12,03,14.20
2019,09,26,12,04,14.20
2019,09,26,12,05,14.20
2019,09,26,12,06,14.20
2019,09,26,12,08,14.20
2019,09,26,12,09,14.20
2019,09,26,12,11,14.20
2019,09,26,12,13,14.20
2019,09,26,12,14,14.20
2019,09,26,12,15,14.20
2019,09,26,12,17,14.20
2019,09,26,12,19,14.20
2019,09,26,12,20,14.20
2019,09,26,12,22,14.20
2019,09,26,12,24,14.30
2019,09,26,12,26,14.40
2019,09,26,12,28,14.50
2019,09,26,12,29,14.60
2019,09,26,12,30,14.60
2019,09,26,12,32,14.70
2019,09,26,12,33,14.80
2019,09,26,12,34,14.80
2019,09,26,12,36,14.90
2019,09,26,12,37,15.00
2019,09,26,12,38,15.00
2019,09,26,12,39,15.10
2019,09,26,12,41,15.20
2019,09,26,12,43,15.30
2019,09,26,12,44,15.30
2019,09,26,12,45,15.30
2019,09,26,12,47,15.40
2019,09,26,12,48,15.50
2019,09,26,12,49,15.50
2019,09,26,12,51,15.70
2019,09,26,12,53,15.80
2019,09,26,12,54,15.80
2019,09,26,12,56,15.80
2019,09,26,12,58,15.90
2019,09,26,12,59,15.90
2019,09,26,13,01,16.10
2019,09,26,13,02,16.10
2019,09,26,13,03,16.10
2019,09,26,13,04,16.20
2019,09,26,13,05,16.20
2019,09,26,13,07,16.30
2019,09,26,13,08,16.30
2019,09,26,13,09,16.30
2019,09,26,13,11,16.30
2019,09,26,13,12,16.20
2019,09,26,13,13,16.20
2019,09,26,13,14,16.10
2019,09,26,13,16,16.10
2019,09,26,13,17,16.10
2019,09,26,13,18,16.10
2019,09,26,13,19,15.90
2019,09,26,13,21,15.90
2019,09,26,13,22,15.90
2019,09,26,13,23,15.90
2019,09,26,13,24,15.90
2019,09,26,13,26,15.90
2019,09,26,13,27,15.90
2019,09,26,13,28,16.10
2019,09,26,13,29,16.10
2019,09,26,13,31,16.10
2019,09,26,13,32,16.10
2019,09,26,13,33,16.20
2019,09,26,13,34,16.20
2019,09,26,13,36,16.30
2019,09,26,13,37,16.30
2019,09,26,13,38,16.30
2019,09,26,13,39,16.20
2019,09,26,13,41,16.20
2019,09,26,13,42,16.10
2019,09,26,13,43,16.10
2019,09,26,13,44,16.10
2019,09,26,13,46,16.10
2019,09,26,13,47,16.10
2019,09,26,13,48,16.10
2019,09,26,13,49,16.10
2019,09,26,13,51,16.10
2019,09,26,13,52,16.10
2019,09,26,13,53,15.90
2019,09,26,13,54,15.90
2019,09,26,13,56,15.90
2019,09,26,13,57,15.80
2019,09,26,13,58,15.80
2019,09,26,13,59,15.80
2019,09,26,14,01,15.70
2019,09,26,14,02,15.70
2019,09,26,14,03,15.60
2019,09,26,14,04,15.60
2019,09,26,14,06,15.50
2019,09,26,14,07,15.40
2019,09,26,14,08,15.40
2019,09,26,14,09,15.30
2019,09,26,14,11,15.30
2019,09,26,14,12,15.30
2019,09,26,14,13,15.20
2019,09,26,14,14,15.20
2019,09,26,14,16,15.30
2019,09,26,14,17,15.30
2019,09,26,14,18,15.30
2019,09,26,14,19,15.30
2019,09,26,14,21,15.40
2019,09,26,14,22,15.50
2019,09,26,14,23,15.50
2019,09,26,14,24,15.50
2019,09,26,14,26,15.60
2019,09,26,14,27,15.70
2019,09,26,14,28,15.70
2019,09,26,14,29,15.80
2019,09,26,14,31,15.80
2019,09,26,14,32,15.80
2019,09,26,14,33,15.90
2019,09,26,14,34,16.10
2019,09,26,14,36,16.10
2019,09,26,14,37,16.20
2019,09,26,14,38,16.20
2019,09,26,14,39,16.30
2019,09,26,14,41,16.40
2019,09,26,14,42,16.40
2019,09,26,14,43,16.40
2019,09,26,14,44,16.60
2019,09,26,14,46,16.60
2019,09,26,14,47,16.70
2019,09,26,14,48,16.70
2019,09,26,14,49,16.70
2019,09,26,14,51,16.70
2019,09,26,14,52,16.70
2019,09,26,14,53,16.70
2019,09,26,14,54,16.70
2019,09,26,14,55,16.70
2019,09,26,14,56,16.70
2019,09,26,14,57,16.70
2019,09,26,14,58,16.70
2019,09,26,14,59,16.70
2019,09,26,15,01,16.70
2019,09,26,15,02,16.70
2019,09,26,15,03,16.70
2019,09,26,15,04,16.70
2019,09,26,15,06,16.70
2019,09,26,15,07,16.70
2019,09,26,15,08,16.70
2019,09,26,15,09,16.70
2019,09,26,15,12,16.70
2019,09,26,15,13,16.70
2019,09,26,15,14,16.80
2019,09,26,15,15,16.80
2019,09,26,15,16,16.90
2019,09,26,15,17,16.90
2019,09,26,15,18,17.00
2019,09,26,15,19,17.00
2019,09,26,15,21,17.20
2019,09,26,15,22,17.20
2019,09,26,15,23,17.20
2019,09,26,15,24,17.20
2019,09,26,15,25,17.00
2019,09,26,15,26,16.90
2019,09,26,15,27,16.80
2019,09,26,15,28,16.70
2019,09,26,15,29,16.70
2019,09,26,15,31,16.40
2019,09,26,15,32,16.40
2019,09,26,15,33,16.40
2019,09,26,15,34,16.30
2019,09,26,15,36,16.30
2019,09,26,15,37,16.20
2019,09,26,15,38,16.20
2019,09,26,15,39,16.20
2019,09,26,15,41,16.10
2019,09,26,15,42,16.10
2019,09,26,15,43,16.10
2019,09,26,15,44,16.10
2019,09,26,15,45,16.10
2019,09,26,15,46,16.20
2019,09,26,15,47,16.20
2019,09,26,15,48,16.20
2019,09,26,15,49,16.20
2019,09,26,15,50,16.30
2019,09,26,15,51,16.30
2019,09,26,15,52,16.40
2019,09,26,15,53,16.40
2019,09,26,15,54,16.40
2019,09,26,15,55,16.40
2019,09,26,15,56,16.60
2019,09,26,15,57,16.60
2019,09,26,15,58,16.60
2019,09,26,15,59,16.60
2019,09,26,16,00,16.60
2019,09,26,16,01,16.60
2019,09,26,16,02,16.60
2019,09,26,16,03,16.60
2019,09,26,16,04,16.40
2019,09,26,16,06,16.40
2019,09,26,16,07,16.40
2019,09,26,16,08,16.40
2019,09,26,16,09,16.40
2019,09,26,16,10,16.30
2019,09,26,16,11,16.30
2019,09,26,16,12,16.10
2019,09,26,16,13,16.10
2019,09,26,16,14,15.80
2019,09,26,16,15,15.80
2019,09,26,16,16,15.60
2019,09,26,16,17,15.50
2019,09,26,16,18,15.30
2019,09,26,16,19,15.30
2019,09,26,16,20,15.10
2019,09,26,16,21,15.00
2019,09,26,16,22,14.90
2019,09,26,16,23,14.80
2019,09,26,16,24,14.80
2019,09,26,16,25,14.80
2019,09,26,16,26,14.80
2019,09,26,16,27,14.80
2019,09,26,16,28,14.80
2019,09,26,16,29,14.80
2019,09,26,16,30,14.80
2019,09,26,16,31,14.80
2019,09,26,16,32,14.80
2019,09,26,16,33,14.90
2019,09,26,16,34,14.90
2019,09,26,16,35,15.00
2019,09,26,16,36,15.00
2019,09,26,16,37,15.10
2019,09,26,16,38,15.10
2019,09,26,16,39,15.10
2019,09,26,16,40,15.20
2019,09,26,16,41,15.20
2019,09,26,16,42,15.20
2019,09,26,16,43,15.20
2019,09,26,16,44,15.30
2019,09,26,16,45,15.30
2019,09,26,16,46,15.30
2019,09,26,16,47,15.30
2019,09,26,16,48,15.30
2019,09,26,16,49,15.30
2019,09,26,16,50,15.30
2019,09,26,16,51,15.30
2019,09,26,16,52,15.40
2019,09,26,16,53,15.40
2019,09,26,16,54,15.40
2019,09,26,16,55,15.50
2019,09,26,16,56,15.50
2019,09,26,16,57,15.50
2019,09,26,16,58,15.50
2019,09,26,16,59,15.50
2019,09,26,17,00,15.50
2019,09,26,17,01,15.50
2019,09,26,17,02,15.50
2019,09,26,17,03,15.50
2019,09,26,17,04,15.50
2019,09,26,17,06,15.60
2019,09,26,17,07,15.60
2019,09,26,17,08,15.60
2019,09,26,17,09,15.60
2019,09,26,17,10,15.60
2019,09,26,17,11,15.60
2019,09,26,17,13,15.70
2019,09,26,17,14,15.70
2019,09,26,17,16,15.70
2019,09,26,17,17,15.70
2019,09,26,17,18,15.70
2019,09,26,17,19,15.70
2019,09,26,17,21,15.60
2019,09,26,17,23,15.50
2019,09,26,17,24,15.40
2019,09,26,17,25,15.30
2019,09,26,17,26,15.30
2019,09,26,17,28,15.10
2019,09,26,17,29,15.10
2019,09,26,17,30,15.00
2019,09,26,17,31,14.90
2019,09,26,17,33,14.90
2019,09,26,17,34,14.80
2019,09,26,17,35,14.80
2019,09,26,17,37,14.80
2019,09,26,17,38,14.80
2019,09,26,17,39,14.80
2019,09,26,17,41,14.80
2019,09,26,17,43,14.80
2019,09,26,17,44,14.70
2019,09,26,17,45,14.70
2019,09,26,17,46,14.70
2019,09,26,17,47,14.60
2019,09,26,17,49,14.50
2019,09,26,17,51,14.30
2019,09,26,17,52,14.30
2019,09,26,17,54,14.20
2019,09,26,17,56,14.20
2019,09,26,17,58,14.20
2019,09,26,17,59,14.10
2019,09,26,18,01,14.10
2019,09,26,18,02,14.10
2019,09,26,18,03,14.00
2019,09,26,18,04,14.00
2019,09,26,18,06,14.10
2019,09,26,18,07,14.10
2019,09,26,18,08,14.10
2019,09,26,18,09,14.10
2019,09,26,18,11,14.10
2019,09,26,18,12,14.10
2019,09,26,18,13,14.10
2019,09,26,18,14,14.10
2019,09,26,18,16,14.10
2019,09,26,18,17,14.10
2019,09,26,18,18,14.10
2019,09,26,18,19,14.10
2019,09,26,18,21,14.20
2019,09,26,18,22,14.20
2019,09,26,18,23,14.20
2019,09,26,18,24,14.10
2019,09,26,18,26,14.10
2019,09,26,18,27,14.10
2019,09,26,18,28,14.10
2019,09,26,18,29,14.00
2019,09,26,18,30,14.00
2019,09,26,18,32,14.00
2019,09,26,18,33,14.00
2019,09,26,18,34,14.00
2019,09,26,18,36,13.90
2019,09,26,18,37,13.90
2019,09,26,18,38,13.90
2019,09,26,18,39,13.90
2019,09,26,18,41,13.90
2019,09,26,18,42,13.90
2019,09,26,18,43,13.90
2019,09,26,18,44,13.90
2019,09,26,18,46,13.80
2019,09,26,18,47,13.80
2019,09,26,18,48,13.80
2019,09,26,18,49,13.80
2019,09,26,18,51,13.80
2019,09,26,18,52,13.80
2019,09,26,18,53,13.80
2019,09,26,18,54,13.80
2019,09,26,18,56,13.80
2019,09,26,18,57,13.80
2019,09,26,18,58,13.80
2019,09,26,18,59,13.80
2019,09,26,19,01,13.80
2019,09,26,19,02,13.80
2019,09,26,19,03,13.80
2019,09,26,19,04,13.80
2019,09,26,19,06,13.70
2019,09,26,19,07,13.70
2019,09,26,19,08,13.70
2019,09,26,19,09,13.70
2019,09,26,19,11,13.70
2019,09,26,19,12,13.70
2019,09,26,19,13,13.70
2019,09,26,19,14,13.70
2019,09,26,19,16,13.60
2019,09,26,19,17,13.60
2019,09,26,19,18,13.60
2019,09,26,19,19,13.60
2019,09,26,19,22,13.60
2019,09,26,19,23,13.60
2019,09,26,19,24,13.60
2019,09,26,19,26,13.50
2019,09,26,19,27,13.50
2019,09,26,19,28,13.50
2019,09,26,19,29,13.50
2019,09,26,19,31,13.40
2019,09,26,19,32,13.40
2019,09,26,19,33,13.40
2019,09,26,19,34,13.30
2019,09,26,19,36,13.30
2019,09,26,19,37,13.30
2019,09,26,19,38,13.30
2019,09,26,19,39,13.30
2019,09,26,19,42,13.30
2019,09,26,19,43,13.30
2019,09,26,19,44,13.30
2019,09,26,19,46,13.20
2019,09,26,19,47,13.20
2019,09,26,19,48,13.20
2019,09,26,19,49,13.10
2019,09,26,19,51,13.10
2019,09,26,19,52,13.00
2019,09,26,19,53,13.00
2019,09,26,19,54,12.90
2019,09,26,19,56,12.80
2019,09,26,19,57,12.80
2019,09,26,19,58,12.80
2019,09,26,19,59,12.80
2019,09,26,20,01,12.80
2019,09,26,20,02,12.70
2019,09,26,20,03,12.70
2019,09,26,20,04,12.70
2019,09,26,20,06,12.70
2019,09,26,20,07,12.60
2019,09,26,20,08,12.60
2019,09,26,20,09,12.60
2019,09,26,20,11,12.60
2019,09,26,20,12,12.50
2019,09,26,20,13,12.50
2019,09,26,20,14,12.50
2019,09,26,20,16,12.50
2019,09,26,20,17,12.40
2019,09,26,20,18,12.40
2019,09,26,20,19,12.40
2019,09,26,20,21,12.40
2019,09,26,20,22,12.40
2019,09,26,20,23,12.40
2019,09,26,20,24,12.30
2019,09,26,20,26,12.30
2019,09,26,20,27,12.30
2019,09,26,20,28,12.30
2019,09,26,20,29,12.30
2019,09,26,20,31,12.30
2019,09,26,20,32,12.30
2019,09,26,20,33,12.20
2019,09,26,20,34,12.20
2019,09,26,20,36,12.20
2019,09,26,20,37,12.10
2019,09,26,20,38,12.10
2019,09,26,20,39,12.10
2019,09,26,20,41,12.00
2019,09,26,20,42,12.00
2019,09,26,20,43,12.00
2019,09,26,20,44,12.00
2019,09,26,20,46,12.00
2019,09,26,20,47,12.00